Regional Weather Roundup
Issued by NWS Sioux Falls, SD

Home | Current Version | Previous Version | Text Only | Print | Product List | Glossary On
Versions: 1 2 3 4 5 6 7 8 9 10 11 12 13 14 15 16 17 18 19 20 21 22 23 24 25 26 27 28 29 30 31 32 33 34 35 36 37 38 39 40 41 42 43 44 45 46 47 48 49 50
000
ASUS43 KFSD 040110
RWRFSD

WEATHER ROUNDUP FOR SE SOUTH DAKOTA/SW MINNESOTA/NW IOWA
NATIONAL WEATHER SERVICE SIOUX FALLS SD
800 PM CDT TUE MAY 03 2016

NOTE: "FAIR" INDICATES FEW OR NO CLOUDS BELOW 12,000 FEET WITH NO
SIGNIFICANT WEATHER AND OR OBSTRUCTIONS TO VISIBILITY.


SDZ038>040-050-052>070-040200-
SOUTHEAST SOUTH DAKOTA

CITY           SKY/WX    TMP DP  RH WIND       PRES   REMARKS
BROOKINGS      CLEAR     64  29  26 N17G25    29.85R
CHAMBERLAIN    CLEAR     72  44  36 NW10G16   29.92S
HURON          CLEAR     68  28  22 N17G28    29.89R
MADISON        FAIR      66  32  28 N20G29    29.85R
MITCHELL       CLEAR     70  42  36 N21       29.87R
SIOUX FALLS    PTCLDY    68  37  32 N21G30    29.82R
WINNER         FAIR      69  45  41 NW9       29.95F
YANKTON        CLEAR     66  46  48 W14       29.84F
$$

MNZ071-072-080-081-089-090-097-098-040200-
SOUTHWEST MINNESOTA

CITY           SKY/WX    TMP DP  RH WIND       PRES   REMARKS
FAIRMONT       CLOUDY    66  34  30 NW13G22   29.74R
JACKSON        PTCLDY    66  28  24 NW21G26   29.78R
LUVERNE        CLEAR     68  32  26 N13G24    29.81R
MARSHALL       CLEAR     66  28  24 N24G30    29.81R
MONTEVIDEO     CLEAR     64  28  25 N23G31    29.83R HAZE
PIPESTONE      CLEAR     64  19  17 N18G25    29.83R
REDWOOD FALLS  CLEAR     67  22  18 N13G30    29.77R
TRACY          CLEAR     66  30  25 N21G28    29.81R
WINDOM         CLEAR     64  25  22 NW23G33   29.78R
WORTHINGTON    CLEAR     63  36  36 N22       29.80R
$$

IAZ001>003-012>014-020>022-031-032-NEZ013-014-SDZ071-040200-
NORTHWEST IOWA

CITY           SKY/WX    TMP DP  RH WIND       PRES   REMARKS
CHEROKEE       CLEAR     65  47  52 W14       29.80F
DENISON        CLEAR     64  45  48 W10G17    29.84F
ESTHERVILLE    MOCLDY    64  47  53 W16       29.75S
LE MARS        CLEAR     66  48  52 W9        29.83F
ORANGE CITY    PTCLDY    66  48  52 W15       29.80F
SHELDON        MOCLDY    66  46  48 W14G21    29.77F
SIOUX CITY     CLEAR     66  47  50 MISG      29.85F
SPENCER        MOCLDY    65  45  48 W16       29.77F
STORM LAKE     CLEAR     63  46  55 W15       29.81F
$$

ABBREVIATIONS USED IN REMARKS
   TC - TEMPERATURE IN CELSIUS
  WCI - WIND CHILL INDEX
   HX - HEAT INDEX
  VSB - VISIBILITY





USA.gov is the U.S. government's official web portal to all federal, state and local government web resources and services.